Regional Weather Roundup
Issued by NWS Kansas City/Pleasant Hill, MO

Home | Current Version | Previous Version | Text Only | Print | Product List | Glossary On
Versions: 1 2 3 4 5 6 7 8 9 10 11 12 13 14 15 16 17 18 19 20 21 22 23 24 25 26 27 28 29 30 31 32 33 34 35 36 37 38 39 40 41 42 43 44 45 46 47 48 49 50
000
ASUS43 KEAX 192111
RWREAX

WEATHER ROUNDUP FOR EASTERN KANSAS AND NORTHWEST MISSOURI
NATIONAL WEATHER SERVICE KANSAS CITY/PLEASANT HILL MO
400 PM CDT SAT APR 19 2014

KSZ040-057-103>105-MOZ028-029-037-043-192200-
...KANSAS CITY METROPOLITAN AREA...

CITY           SKY/WX    TMP DP  RH WIND       PRES   REMARKS
K.C. INTL      PTSUNNY   77  45  32 S16G28    30.07F
K.C. DOWNTOWN  MOSUNNY   78  45  30 SW20G26   30.07F
LEES SUMMIT    MOSUNNY   75  44  33 S14G22    30.09F
OLATHE - IXD   SUNNY     76  46  34 S18G26    30.08F
OLATHE - OJC   SUNNY     74  45  35 S20G26    30.08F
LAWRENCE       SUNNY     79  45  29 S20G29    30.06F

$$

MOZ001>008-011>017-020>025-030>033-038>040-044>046-053-054-192200-
...NORTHERN AND CENTRAL MISSOURI...

CITY           SKY/WX    TMP DP  RH WIND       PRES   REMARKS
ST. JOSEPH     PTSUNNY   79  43  27 S18G28    30.05F
MOSBY          FAIR      75  43  31 S12G24    30.08F
WARRENSBURG    MOSUNNY  N/A N/A N/A SE16      30.10F
WHITEMAN AFB   SUNNY     76  45  33 S13       30.12F
CLINTON        MOSUNNY   75  46  35 S12       30.13F
SEDALIA        SUNNY     77  45  32 SW8       30.14F
WARSAW         NOT AVBL
MARSHALL         N/A     79  46  31 S12G21    30.12F
CHILLICOTHE      N/A     77  44  30 S16G23    30.11F
MOBERLY        MOSUNNY   79  41  25 SE12G21   30.16F
KIRKSVILLE     PTSUNNY   76  42  29 S15G23    30.14F

$$

MOZ041-047>049-056>058-063>065-088>090-097-192200-
...EASTERN AND SOUTHERN MISSOURI...

CITY           SKY/WX    TMP DP  RH WIND       PRES   REMARKS
ST. LOUIS INTL CLOUDY    75  38  26 SE9       30.20F
SPIRIT OF STL  PTSUNNY   73  38  27 E8        30.18F
COLUMBIA       MOSUNNY   76  41  28 SE8       30.16F
JEFFERSON CITY MOSUNNY   76  36  23 E3        30.15F
MEXICO         MOSUNNY   73  45  35 SE9       30.16F
HANNIBAL       MOSUNNY   79  32  18 S12G20    30.16F
ROLLA          MOSUNNY   75  42  30 S10       30.15F
LEBANON        SUNNY     77  37  24 S10       30.16F
OSAGE BEACH    SUNNY     77  37  24 S9        30.15F
SPRINGFIELD    MOSUNNY   74  42  31 SE16      30.14F
BRANSON        PTSUNNY   75  46  35 SE13      30.16F
NEVADA         MOSUNNY   77  45  31 S12       30.13S
JOPLIN         MOSUNNY   76  44  32 S13       30.12F
WEST PLAINS    MOSUNNY   74  40  29 S9        30.17F

$$

IAZ060-094-KSZ022-034>040-054-083-096-NEZ052-066-093-192200-
...KANSAS...SOUTHEAST NEBRASKA AND IOWA...

CITY           SKY/WX    TMP DP  RH WIND       PRES   REMARKS
TOPEKA         SUNNY     79  45  29 S15G28    30.04F
EMPORIA        PTSUNNY   77  43  29 S21G31    30.04F
CHANUTE        SUNNY     77  46  33 S17       30.09F
WICHITA        PTSUNNY   79  48  33 S22G36    30.00F
OMAHA          CLOUDY    78  43  28 S17G31    29.98F
LINCOLN        PTSUNNY   81  47  30 S18G29    29.97F
LAMONI         PTSUNNY   76  43  30 S18G31    30.06F
DES MOINES     CLOUDY    77  43  29 S16G31    30.05F

$$




USA.gov is the U.S. government's official web portal to all federal, state and local government web resources and services.